{"data":{"norad_id":60359,"epoch":"2026-05-25T04:15:56.629728Z","epoch_age_seconds":66516,"freshness":"FRESH","line1":"1 60359U 24138E   26145.17773877  .00001395  00000+0  59214-4 0  9998","line2":"2 60359  53.1604 314.6568 0001016  86.0594 274.0523 15.30200966 83362","mean_motion":15.30200966,"eccentricity":0.0001016,"inclination_deg":53.1604,"raan_deg":314.6568,"arg_perigee_deg":86.0594,"mean_anomaly_deg":274.0523,"bstar":5.9214e-5,"rev_number":8336,"period_min":94.105286298715,"perigee_km":474.51588484176,"apogee_km":475.90848539617,"semimajor_km":6853.349185119,"source":"CELESTRAK","updated_at":"2026-05-25T13:38:19.238374Z"}}